カタログに戻る

DMSP 5D-3 F18 DEB

運用中SSO
NORAD 35953·DEBRIS·🇺🇸 United States

打ち上げ Oct 18, 2009 から Vandenberg Space Force Base

Loading…

次のパス (今後24時間)

TLE

最新Source: Space-Track

元期: Sep 14, 2026, 11:10 UTC

1 35953U 09057C   26257.46594984  .00001225  00000-0  50180-3 0  9994
2 35953  98.6593 247.1247 0002986 196.6547 324.4106 14.28995775875262

AllMySatでDMSP 5D-3 F18 DEBをリアルタイム追跡

Download on the App Store